Berlin Tegel, Germany

5:41 PM CEST on May 21, 2018 (GMT +0200)
Tegel

Weather History for EDDT - January, 2013

Change the Weather History Date:

Saturday, January 5, 2013

  Actual Average Record
Temperature  
Mean Temperature 43 °F -  
Max Temperature 45 °F 37 °F 57 °F (1999)
Min Temperature 41 °F 28 °F 8 °F (1997)
Degree Days  
Heating Degree Days 22    
Moisture  
Dew Point 43 °F    
Average Humidity 93    
Maximum Humidity 100    
Minimum Humidity 83    
Precipitation  
Precipitation 0.00 in - - ()
Sea Level Pressure  
Sea Level Pressure 30.30 in    
Wind  
Wind Speed 6 mph ()    
Max Wind Speed 11 mph    
Max Gust Speed -    
Visibility 7.0 miles    
Events Rain    
Averages and records for this station are not official NWS values.
T = Trace of Precipitation, MM = Missing Value Source: Averaged Metar Reports

Daily Weather History Graph

Daily Weather History Graph

Search for Another Location

Airport or City:

Astronomy

Jan. 05, 2013 Rise Set
Actual Time 8:16 AM CET 4:07 PM CET
Civil Twilight 7:35 AM CET 4:48 PM CET
Nautical Twilight 6:51 AM CET 5:32 PM CET
Astronomical Twilight 6:10 AM CET 6:14 PM CET
Moon 12:32 AM CET (1/5) 11:15 AM CET (1/5)
Length of Visible Light 9h 13m
Length of Day
7h 51m
Waning Gibbous, 47% of the Moon is Illuminated
Jan 5
Waning Gibbous
Jan 11
New
Jan 19
First Quarter
Jan 27
Full
Feb 3
Last Quarter

Hourly Weather History & Observations

Time (CET) Temp. Windchill Dew Point Humidity Pressure Visibility Wind Dir Wind Speed Gust Speed Precip Events Conditions
12:00 AM 48 °F - 46 °F 92% 30.19 in 6 mi WNW 11.2 mph - - Rain Light Drizzle
12:20 AM 48.2 °F - 46.4 °F 93% 30.18 in 6.2 mi WNW 10.4 mph - N/A   Light Drizzle
12:50 AM 48.2 °F - 46.4 °F 93% 30.18 in 6.2 mi NW 9.2 mph - N/A   Light Drizzle
1:00 AM 48 °F - 46 °F 91% 30.20 in 6 mi NW 8.9 mph - - Rain Light Drizzle
1:20 AM 48.2 °F - 46.4 °F 93% 30.18 in 6.2 mi WNW 8.1 mph - N/A   Light Drizzle
1:50 AM 46.4 °F 43.5 °F 46.4 °F 100% 30.18 in 4.3 mi NW 5.8 mph - N/A   Light Drizzle
2:00 AM 47 °F - 46 °F 96% 30.21 in 4 mi NW 4.5 mph - - Rain Light Drizzle
2:20 AM 46.4 °F 42.4 °F 46.4 °F 100% 30.21 in 6.2 mi NW 8.1 mph - N/A   Light Drizzle
2:50 AM 46.4 °F 41.9 °F 46.4 °F 100% 30.18 in 6.2 mi WNW 9.2 mph - N/A   Mostly Cloudy
3:00 AM 47 °F - 45 °F 92% 30.21 in 7 mi WNW 8.9 mph - - Rain Light Drizzle
3:20 AM 46.4 °F 42.4 °F 44.6 °F 93% 30.21 in 6.2 mi NW 8.1 mph - N/A   Mostly Cloudy
3:50 AM 46.4 °F 42.4 °F 44.6 °F 93% 30.21 in 6.2 mi WNW 8.1 mph - N/A   Mostly Cloudy
4:00 AM 46 °F - 44 °F 92% 30.22 in 9 mi WNW 6.7 mph - -   Partly Cloudy
4:20 AM 44.6 °F 40.2 °F 44.6 °F 100% 30.21 in 6.2 mi NW 8.1 mph - N/A   Scattered Clouds
4:50 AM 44.6 °F 40.7 °F 44.6 °F 100% 30.21 in 6.2 mi WNW 6.9 mph - N/A   Mostly Cloudy
5:00 AM 45 °F - 44 °F 94% 30.23 in 9 mi WNW 6.7 mph - -   Mostly Cloudy
5:20 AM 46.4 °F 41.5 °F 44.6 °F 93% 30.21 in 6.2 mi NW 10.4 mph - N/A   Mostly Cloudy
5:50 AM 46.4 °F 42.4 °F 44.6 °F 93% 30.24 in 6.2 mi NW 8.1 mph - N/A   Mostly Cloudy
6:00 AM 46 °F - 44 °F 89% 30.25 in 16 mi NW 6.7 mph - -   Mostly Cloudy
6:20 AM 46.4 °F 42.4 °F 44.6 °F 93% 30.24 in 6.2 mi NW 8.1 mph - N/A   Mostly Cloudy
6:50 AM 46.4 °F 42.9 °F 44.6 °F 93% 30.24 in 6.2 mi NW 6.9 mph - N/A   Mostly Cloudy
7:00 AM 46 °F - 44 °F 89% 30.26 in 16 mi NW 6.7 mph - -   Partly Cloudy
7:20 AM 44.6 °F 40.7 °F 42.8 °F 93% 30.27 in 6.2 mi NW 6.9 mph - N/A   Mostly Cloudy
7:50 AM 44.6 °F 40.7 °F 42.8 °F 93% 30.27 in 6.2 mi NNW 6.9 mph - N/A   Mostly Cloudy
8:00 AM 46 °F - 43 °F 84% 30.28 in 14 mi NNW 6.7 mph - -   Overcast
8:20 AM 44.6 °F 40.7 °F 42.8 °F 93% 30.27 in 6.2 mi NW 6.9 mph - N/A   Mostly Cloudy
8:50 AM 44.6 °F 41.4 °F 42.8 °F 93% 30.27 in 6.2 mi NW 5.8 mph - N/A   Mostly Cloudy
9:00 AM 45 °F - 43 °F 89% 30.30 in 14 mi NW 6.7 mph - -   Overcast
9:20 AM 44.6 °F 40.2 °F 42.8 °F 93% 30.30 in 6.2 mi NW 8.1 mph - N/A   Mostly Cloudy
9:50 AM 44.6 °F 42.2 °F 42.8 °F 93% 30.30 in 6.2 mi NNW 4.6 mph - N/A Rain Light Rain
10:00 AM 45 °F - 43 °F 90% 30.32 in 11 mi NNW 4.5 mph - - Rain Light Rain
10:20 AM 44.6 °F 40.7 °F 42.8 °F 93% 30.30 in 6.2 mi NNW 6.9 mph - N/A Rain Light Rain
10:50 AM 44.6 °F 41.4 °F 42.8 °F 93% 30.33 in 6.2 mi NNW 5.8 mph - N/A Rain Light Rain
11:00 AM 45 °F - 43 °F 90% 30.34 in 7 mi NNW 4.5 mph - - Rain Light Rain
11:20 AM 44.6 °F 40.7 °F 42.8 °F 93% 30.33 in 6.2 mi NW 6.9 mph - N/A Rain Light Rain
11:50 AM 44.6 °F 40.7 °F 42.8 °F 93% 30.33 in 6.2 mi NW 6.9 mph - N/A Rain Light Rain
12:00 PM 45 °F - 43 °F 89% 30.34 in 7 mi NW 6.7 mph - - Rain Light Rain
12:20 PM 44.6 °F 40.7 °F 42.8 °F 93% 30.33 in 6.2 mi North 6.9 mph - N/A   Mostly Cloudy
12:50 PM 44.6 °F 40.2 °F 41.0 °F 87% 30.33 in 6.2 mi NNW 8.1 mph - N/A   Mostly Cloudy
1:00 PM 45 °F - 42 °F 83% 30.34 in 9 mi NNW 8.9 mph - - Rain Light Rain
1:20 PM 44.6 °F 40.7 °F 42.8 °F 93% 30.33 in 6.2 mi NNW 6.9 mph - N/A   Mostly Cloudy
1:50 PM 42.8 °F 39.3 °F 41.0 °F 93% 30.33 in 6.2 mi NNE 5.8 mph - N/A   Light Drizzle
2:00 PM 43 °F - 41 °F 92% 30.35 in 7 mi NNE 6.7 mph - - Rain Light Drizzle
2:20 PM 42.8 °F 39.3 °F 41.0 °F 93% 30.33 in 6.2 mi North 5.8 mph - N/A   Light Drizzle
2:50 PM 42.8 °F 40.1 °F 41.0 °F 93% 30.36 in 6.2 mi North 4.6 mph - N/A   Light Drizzle
3:00 PM 43 °F - 42 °F 92% 30.37 in 7 mi North 4.5 mph - - Rain Light Drizzle
3:20 PM 42.8 °F 39.3 °F 41.0 °F 93% 30.36 in 6.2 mi North 5.8 mph - N/A   Light Drizzle
3:50 PM 42.8 °F 40.1 °F 41.0 °F 93% 30.36 in 6.2 mi NNE 4.6 mph - N/A   Light Drizzle
4:00 PM 43 °F - 41 °F 89% 30.37 in 9 mi NNE 4.5 mph - - Rain Light Drizzle
4:20 PM 42.8 °F 40.1 °F 41.0 °F 93% 30.36 in 6.2 mi North 4.6 mph - N/A   Light Drizzle
4:50 PM 42.8 °F 41.1 °F 41.0 °F 93% 30.36 in 6.2 mi NNW 3.5 mph - N/A   Light Drizzle
5:00 PM 43 °F - 41 °F 89% 30.38 in 9 mi NNW 2.2 mph - - Rain Light Drizzle
5:20 PM 42.8 °F 41.1 °F 41.0 °F 93% 30.36 in 6.2 mi NNW 3.5 mph - N/A   Mostly Cloudy
5:50 PM 42.8 °F 40.1 °F 41.0 °F 93% 30.36 in 6.2 mi NNW 4.6 mph - N/A   Mostly Cloudy
6:00 PM 42 °F - 40 °F 92% 30.38 in 9 mi NNW 4.5 mph - - Rain Light Drizzle
6:20 PM 42.8 °F 41.1 °F 41.0 °F 93% 30.36 in 6.2 mi NNW 3.5 mph - N/A   Mostly Cloudy
6:50 PM 42.8 °F 41.1 °F 41.0 °F 93% 30.36 in 6.2 mi NW 3.5 mph - N/A   Light Drizzle
7:00 PM 42 °F - 40 °F 92% 30.38 in 8 mi NW 4.5 mph - - Rain Light Drizzle
7:20 PM 42.8 °F 41.1 °F 41.0 °F 93% 30.36 in 6.2 mi North 3.5 mph - N/A   Mostly Cloudy
7:50 PM 42.8 °F - 41.0 °F 93% 30.36 in 6.2 mi North 2.3 mph - N/A   Mostly Cloudy
8:00 PM 42 °F - 40 °F 91% 30.38 in 12 mi North 2.2 mph - - Rain Light Drizzle
8:20 PM 42.8 °F - 41.0 °F 93% 30.36 in 6.2 mi NW 2.3 mph - N/A   Mostly Cloudy
8:50 PM 42.8 °F - 41.0 °F 93% 30.36 in 6.2 mi Variable 1.2 mph - N/A   Mostly Cloudy
9:00 PM 42 °F - 40 °F 91% 30.38 in 12 mi NNW 2.2 mph - -   Overcast
9:20 PM 41.0 °F 39.0 °F 41.0 °F 100% 30.36 in 6.2 mi WNW 3.5 mph - N/A   Mostly Cloudy
9:50 PM 41.0 °F 39.0 °F 41.0 °F 100% 30.36 in 6.2 mi West 3.5 mph - N/A   Mostly Cloudy
10:00 PM 42 °F - 40 °F 92% 30.38 in 6 mi West 4.5 mph - -   Partly Cloudy
10:20 PM 41.0 °F 39.0 °F 41.0 °F 100% 30.36 in 6.2 mi West 3.5 mph - N/A   Mostly Cloudy
10:50 PM 41.0 °F - 41.0 °F 100% 30.36 in - WNW 2.3 mph - N/A   Mostly Cloudy
11:00 PM 42 °F - 41 °F 94% 30.37 in 3 mi WNW 2.2 mph - - Rain Light Drizzle
11:20 PM 41.0 °F - 41.0 °F 100% 30.36 in 2.8 mi WSW 2.3 mph - N/A   Overcast
11:50 PM 41.0 °F 39.0 °F 41.0 °F 100% 30.33 in 2.8 mi West 3.5 mph - N/A   Overcast